TimeEDT,TemperatureF,Dew PointF,Humidity,Sea Level PressureIn,VisibilityMPH,Wind Direction,Wind SpeedMPH,Gust SpeedMPH,PrecipitationIn,Events,Conditions,WindDirDegrees,DateUTC
12:15 AM,41.0,37.4,87,29.83,10.0,West,12.7,21.9,N/A,,Overcast,280,2013-04-01 04:15:00
12:35 AM,41.0,37.4,87,29.84,10.0,West,15.0,20.7,N/A,,Overcast,280,2013-04-01 04:35:00
12:55 AM,39.2,35.6,87,29.83,10.0,West,18.4,25.3,N/A,,Scattered Clouds,280,2013-04-01 04:55:00
1:15 AM,39.2,35.6,87,29.84,10.0,West,12.7,23.0,N/A,,Clear,280,2013-04-01 05:15:00
1:35 AM,39.2,35.6,87,29.84,10.0,West,12.7,17.3,N/A,,Scattered Clouds,270,2013-04-01 05:35:00
1:55 AM,39.2,35.6,87,29.84,10.0,West,12.7,19.6,N/A,,Scattered Clouds,270,2013-04-01 05:55:00
2:15 AM,39.2,35.6,87,29.84,10.0,West,11.5,18.4,N/A,,Scattered Clouds,260,2013-04-01 06:15:00
2:35 AM,39.2,37.4,93,29.84,10.0,WSW,11.5,-,N/A,,Mostly Cloudy,250,2013-04-01 06:35:00
2:55 AM,39.2,37.4,93,29.84,10.0,West,13.8,-,N/A,,Overcast,260,2013-04-01 06:55:00
3:15 AM,37.4,37.4,100,29.84,10.0,West,13.8,19.6,N/A,,Mostly Cloudy,260,2013-04-01 07:15:00
3:35 AM,37.4,37.4,100,29.84,10.0,West,13.8,-,N/A,,Mostly Cloudy,260,2013-04-01 07:35:00
3:55 AM,37.4,37.4,100,29.84,10.0,West,16.1,20.7,N/A,,Overcast,260,2013-04-01 07:55:00
4:15 AM,37.4,37.4,100,29.83,10.0,West,15.0,21.9,N/A,,Mostly Cloudy,260,2013-04-01 08:15:00
4:35 AM,37.4,37.4,100,29.83,10.0,West,15.0,23.0,N/A,,Mostly Cloudy,270,2013-04-01 08:35:00
5:15 AM,37.4,37.4,100,29.82,10.0,West,12.7,20.7,N/A,,Mostly Cloudy,260,2013-04-01 09:15:00
5:35 AM,37.4,37.4,100,29.82,10.0,West,18.4,24.2,N/A,,Overcast,270,2013-04-01 09:35:00
5:55 AM,37.4,37.4,100,29.82,10.0,West,16.1,23.0,N/A,,Overcast,260,2013-04-01 09:55:00
6:15 AM,37.4,37.4,100,29.82,10.0,West,17.3,20.7,N/A,,Mostly Cloudy,270,2013-04-01 10:15:00
6:35 AM,39.2,37.4,93,29.82,10.0,West,16.1,23.0,N/A,,Scattered Clouds,260,2013-04-01 10:35:00
6:55 AM,37.4,37.4,100,29.83,10.0,West,16.1,20.7,N/A,,Clear,260,2013-04-01 10:55:00
7:15 AM,37.4,37.4,100,29.83,10.0,West,16.1,21.9,N/A,,Mostly Cloudy,270,2013-04-01 11:15:00
7:35 AM,39.2,37.4,93,29.83,10.0,West,16.1,-,N/A,,Mostly Cloudy,270,2013-04-01 11:35:00
8:15 AM,39.2,37.4,93,29.84,7.0,West,16.1,20.7,N/A,,Overcast,270,2013-04-01 12:15:00
8:35 AM,39.2,39.2,100,29.85,7.0,West,18.4,-,N/A,,Overcast,270,2013-04-01 12:35:00
8:55 AM,39.2,39.2,100,29.85,7.0,West,18.4,24.2,N/A,,Overcast,260,2013-04-01 12:55:00
9:15 AM,39.2,39.2,100,29.84,10.0,West,15.0,24.2,N/A,,Overcast,260,2013-04-01 13:15:00
9:35 AM,39.2,39.2,100,29.84,7.0,West,17.3,21.9,N/A,,Overcast,270,2013-04-01 13:35:00
9:55 AM,39.2,39.2,100,29.84,5.0,West,15.0,-,N/A,,Overcast,270,2013-04-01 13:55:00
10:15 AM,41.0,39.2,93,29.84,10.0,West,16.1,26.5,N/A,,Overcast,260,2013-04-01 14:15:00
10:35 AM,41.0,39.2,93,29.84,10.0,West,13.8,24.2,N/A,,Overcast,280,2013-04-01 14:35:00
10:55 AM,39.2,39.2,100,29.84,3.0,WNW,15.0,25.3,0.06,Rain,Light Rain,290,2013-04-01 14:55:00
11:15 AM,39.2,39.2,100,29.85,2.5,West,21.9,27.6,0.17,Rain,Rain,270,2013-04-01 15:15:00
11:35 AM,41.0,41.0,100,29.85,0.2,West,17.3,26.5,0.17,,Overcast,270,2013-04-01 15:35:00
11:55 AM,39.2,39.2,100,29.85,0.2,West,16.1,26.5,N/A,,Unknown,270,2013-04-01 15:55:00
12:15 PM,39.2,39.2,100,29.85,0.2,West,13.8,21.9,0.01,Rain,Light Rain,280,2013-04-01 16:15:00
12:35 PM,39.2,39.2,100,29.84,0.5,West,18.4,24.2,0.02,Rain,Light Rain,270,2013-04-01 16:35:00
12:55 PM,39.2,39.2,100,29.85,3.0,West,16.1,25.3,N/A,,Overcast,270,2013-04-01 16:55:00
1:15 PM,39.2,39.2,100,29.85,5.0,West,20.7,27.6,N/A,,Overcast,280,2013-04-01 17:15:00
1:35 PM,39.2,37.4,93,29.85,10.0,WNW,12.7,23.0,N/A,,Overcast,290,2013-04-01 17:35:00
1:55 PM,37.4,35.6,93,29.85,10.0,West,18.4,33.4,N/A,,Overcast,270,2013-04-01 17:55:00
2:15 PM,39.2,35.6,87,29.84,10.0,West,20.7,29.9,N/A,,Overcast,270,2013-04-01 18:15:00
2:35 PM,39.2,35.6,87,29.84,10.0,West,20.7,26.5,N/A,,Mostly Cloudy,280,2013-04-01 18:35:00
3:15 PM,39.2,33.8,81,29.83,10.0,West,21.9,43.7,N/A,,Overcast,280,2013-04-01 19:15:00
3:35 PM,39.2,33.8,81,29.83,10.0,West,24.2,33.4,N/A,,Overcast,270,2013-04-01 19:35:00
3:55 PM,39.2,33.8,81,29.82,10.0,West,25.3,33.4,N/A,,Overcast,270,2013-04-01 19:55:00
4:15 PM,39.2,33.8,81,29.83,10.0,West,21.9,34.5,N/A,,Overcast,280,2013-04-01 20:15:00
4:35 PM,37.4,33.8,87,29.83,10.0,West,20.7,32.2,N/A,,Overcast,280,2013-04-01 20:35:00
4:55 PM,37.4,32.0,81,29.84,10.0,West,18.4,39.1,N/A,,Overcast,270,2013-04-01 20:55:00
5:15 PM,35.6,32.0,87,29.85,10.0,West,21.9,27.6,N/A,,Overcast,280,2013-04-01 21:15:00
5:35 PM,35.6,30.2,81,29.86,10.0,West,20.7,27.6,N/A,,Overcast,280,2013-04-01 21:35:00
5:55 PM,33.8,28.4,81,29.86,10.0,West,29.9,40.3,N/A,,Overcast,280,2013-04-01 21:55:00
6:15 PM,32.0,26.6,80,29.86,10.0,West,26.5,38.0,N/A,,Overcast,280,2013-04-01 22:15:00
6:35 PM,32.0,26.6,80,29.86,10.0,West,20.7,34.5,N/A,,Mostly Cloudy,280,2013-04-01 22:35:00
6:55 PM,32.0,24.8,75,29.88,10.0,WNW,16.1,33.4,N/A,,Mostly Cloudy,290,2013-04-01 22:55:00
7:15 PM,32.0,24.8,75,29.88,10.0,West,18.4,33.4,N/A,,Mostly Cloudy,280,2013-04-01 23:15:00
7:35 PM,30.2,26.6,86,29.89,10.0,WNW,15.0,28.8,N/A,,Mostly Cloudy,290,2013-04-01 23:35:00
7:55 PM,30.2,24.8,80,29.89,10.0,WNW,16.1,33.4,N/A,,Overcast,290,2013-04-01 23:55:00
8:15 PM,30.2,24.8,80,29.89,10.0,WNW,16.1,25.3,N/A,,Mostly Cloudy,300,2013-04-02 00:15:00
8:35 PM,30.2,24.8,80,29.91,10.0,West,17.3,27.6,N/A,,Scattered Clouds,280,2013-04-02 00:35:00
8:55 PM,28.4,24.8,86,29.91,10.0,WNW,12.7,25.3,N/A,,Scattered Clouds,300,2013-04-02 00:55:00
9:15 PM,30.2,24.8,80,29.92,10.0,WNW,15.0,21.9,N/A,,Mostly Cloudy,300,2013-04-02 01:15:00
9:35 PM,28.4,24.8,86,29.91,10.0,WNW,16.1,23.0,N/A,,Scattered Clouds,300,2013-04-02 01:35:00
9:55 PM,28.4,23.0,80,29.91,10.0,WNW,17.3,29.9,N/A,,Scattered Clouds,290,2013-04-02 01:55:00
10:15 PM,28.4,21.2,74,29.92,10.0,WNW,15.0,29.9,N/A,,Clear,290,2013-04-02 02:15:00
10:35 PM,28.4,21.2,74,29.93,10.0,WNW,13.8,24.2,N/A,,Clear,300,2013-04-02 02:35:00
10:55 PM,28.4,21.2,74,29.93,10.0,WNW,15.0,24.2,N/A,,Clear,290,2013-04-02 02:55:00
11:15 PM,28.4,19.4,69,29.93,10.0,WNW,15.0,23.0,N/A,,Clear,300,2013-04-02 03:15:00
11:35 PM,28.4,19.4,69,29.93,10.0,WNW,12.7,23.0,N/A,,Clear,290,2013-04-02 03:35:00
11:55 PM,28.4,19.4,69,29.94,10.0,WNW,13.8,24.2,N/A,,Clear,300,2013-04-02 03:55:00